timestamp,surface_pressure_avg,surface_temp_avg,battery_voltage,lat,long
2020-01-06 00:09:01+00:00,276.2514,1.1,12.49,47.84626,-54.09684
2020-01-06 00:19:01+00:00,275.1263,1.12,12.49,47.84626,-54.09684
2020-01-06 00:29:01+00:00,255.5914,0.85,12.49,47.84626,-54.09684
2020-01-06 00:39:01+00:00,249.5897,1.26,12.49,47.84626,-54.09684
2020-01-06 00:49:01+00:00,264.0247,1.7,12.49,47.84626,-54.09684
2020-01-06 00:59:01+00:00,259.5697,1.1,12.49,47.84626,-54.09684
2020-01-06 01:09:01+00:00,248.0164,0.89,12.49,47.84626,-54.09684
2020-01-06 01:19:01+00:00,250.4031,0.92,12.49,47.84626,-54.09684
2020-01-06 01:29:01+00:00,260.9214,1.47,12.49,47.84626,-54.09684
2020-01-06 01:39:01+00:00,246.7414,1.32,12.49,47.84626,-54.09684
2020-01-06 01:49:01+00:00,247.3797,0.83,12.49,47.84626,-54.09684
2020-01-06 01:59:01+00:00,269.2564,1.3,12.49,47.84626,-54.09684
2020-01-06 02:09:01+00:00,263.4631,0.9,12.49,47.84626,-54.09684
2020-01-06 02:19:01+00:00,248.2464,0.8,12.49,47.84626,-54.09684
2020-01-06 02:29:01+00:00,252.8048,1.02,12.49,47.84626,-54.09684
2020-01-06 02:39:01+00:00,262.7597,1.23,12.49,47.84626,-54.09684
2020-01-06 02:49:01+00:00,255.543,0.92,12.49,47.84626,-54.09684
2020-01-06 02:59:01+00:00,246.1347,1.1,12.49,47.84626,-54.09684
2020-01-06 03:09:01+00:00,254.1231,1.07,12.49,47.84626,-54.09684
2020-01-06 03:19:01+00:00,263.5631,1.02,12.49,47.84626,-54.09684
2020-01-06 03:29:01+00:00,257.1964,0.75,12.49,47.84626,-54.09684
2020-01-06 03:39:01+00:00,249.3714,1.0,12.49,47.84626,-54.09684
2020-01-06 03:49:01+00:00,266.9915,1.15,12.49,47.84626,-54.09684
2020-01-06 03:59:01+00:00,278.2364,0.64,12.49,47.84626,-54.09684
2020-01-06 04:09:01+00:00,271.6148,0.6,12.49,47.84626,-54.09684
2020-01-06 04:19:01+00:00,267.5931,0.87,12.49,47.84626,-54.09684
2020-01-06 04:29:01+00:00,282.4714,0.94,12.49,47.84626,-54.09684
2020-01-06 04:39:01+00:00,290.9397,0.9,12.49,47.84626,-54.09684
2020-01-06 04:49:01+00:00,291.0797,1.08,12.49,47.84626,-54.09684
2020-01-06 04:59:01+00:00,299.7563,1.4,12.49,47.84626,-54.09684
2020-01-06 05:09:01+00:00,310.078,1.0,12.49,47.84626,-54.09684
2020-01-06 05:19:01+00:00,319.728,0.84,12.49,47.84626,-54.09684
2020-01-06 05:29:01+00:00,319.563,1.27,12.49,47.84626,-54.09684
2020-01-06 05:39:01+00:00,321.3146,1.5,12.49,47.84626,-54.09684
2020-01-06 05:49:01+00:00,334.2746,1.5,12.49,47.84626,-54.09684
2020-01-06 05:59:01+00:00,346.6346,0.9,12.49,47.84626,-54.09684
2020-01-06 06:09:01+00:00,347.7797,0.83,12.49,47.84626,-54.09684
2020-01-06 06:19:01+00:00,341.7147,0.98,12.41,47.84626,-54.09684
2020-01-06 06:29:01+00:00,353.8979,1.01,12.41,47.84626,-54.09684
2020-01-06 06:39:01+00:00,358.9745,0.9,12.41,47.84626,-54.09684
2020-01-06 06:49:01+00:00,355.843,0.84,12.41,47.84626,-54.09684
2020-01-06 06:59:01+00:00,356.9713,1.0,12.41,47.84626,-54.09684
2020-01-06 07:09:01+00:00,360.7963,1.1,12.41,47.84626,-54.09684
2020-01-06 07:19:01+00:00,365.0413,1.1,12.41,47.84626,-54.09684
2020-01-06 07:29:01+00:00,357.8395,1.0,12.41,47.84626,-54.09684
2020-01-06 07:39:01+00:00,356.0496,1.1,12.41,47.84626,-54.09684
2020-01-06 07:49:01+00:00,356.2196,1.19,12.41,47.84626,-54.09684
2020-01-06 07:59:01+00:00,354.4229,1.08,12.41,47.84626,-54.09684
2020-01-06 08:09:01+00:00,354.94800000000015,1.14,12.41,47.84626,-54.09684
2020-01-06 08:19:01+00:00,354.353,1.2,12.41,47.84626,-54.09684
2020-01-06 08:29:01+00:00,350.0114,1.1,12.41,47.84626,-54.09684
2020-01-06 08:39:01+00:00,348.8263,1.16,12.41,47.84626,-54.09684
2020-01-06 08:49:01+00:00,348.9346,1.2,12.41,47.84626,-54.09684
2020-01-06 08:59:01+00:00,343.3797,1.1,12.41,47.84626,-54.09684
2020-01-06 09:09:01+00:00,336.1829,1.18,12.41,47.84626,-54.09684
2020-01-06 09:19:01+00:00,336.86300000000006,1.2,12.41,47.84626,-54.09684
2020-01-06 09:29:01+00:00,335.223,1.18,12.41,47.84626,-54.09684
2020-01-06 09:39:01+00:00,329.593,1.15,12.41,47.84626,-54.09684
2020-01-06 09:49:01+00:00,330.6980000000001,1.2,12.41,47.84626,-54.09684
2020-01-06 09:59:01+00:00,339.4464,1.2,12.41,47.84626,-54.09684
2020-01-06 10:09:01+00:00,335.4479,1.2,12.41,47.84626,-54.09684
2020-01-06 10:19:01+00:00,325.5164,1.16,12.41,47.84626,-54.09684
2020-01-06 10:29:01+00:00,321.203,1.51,12.41,47.84626,-54.09684
2020-01-06 10:39:01+00:00,320.6346,1.66,12.41,47.84626,-54.09684
2020-01-06 10:49:01+00:00,311.8064,1.36,12.41,47.84626,-54.09684
2020-01-06 10:59:01+00:00,303.5863,1.3,12.41,47.84626,-54.09684
2020-01-06 11:09:01+00:00,303.938,1.41,12.41,47.84626,-54.09684
2020-01-06 11:19:01+00:00,302.038,1.5,12.41,47.84626,-54.09684
2020-01-06 11:29:01+00:00,289.1281,1.4,12.41,47.84626,-54.09684
2020-01-06 11:39:01+00:00,282.2997,1.78,12.41,47.84626,-54.09684
2020-01-06 11:49:01+00:00,281.053,1.7,12.41,47.84626,-54.09684
2020-01-06 11:59:01+00:00,282.613,1.4,12.41,47.84626,-54.09684
2020-01-06 12:09:01+00:00,277.7347,1.37,12.41,47.84626,-54.09684
2020-01-06 12:19:01+00:00,280.0847,1.39,12.41,47.84626,-54.09684
2020-01-06 12:29:01+00:00,275.3848,1.4,12.41,47.84626,-54.09684
2020-01-06 12:39:01+00:00,270.5097,1.39,12.41,47.84626,-54.09684
2020-01-06 12:49:01+00:00,268.968,1.4,12.41,47.84626,-54.09684
2020-01-06 12:59:01+00:00,269.8564,1.4,12.41,47.84626,-54.09684
2020-01-06 13:09:01+00:00,253.1647,1.4,12.41,47.84626,-54.09684
2020-01-06 13:19:01+00:00,240.0764,1.43,12.49,47.84626,-54.09684
2020-01-06 13:29:01+00:00,244.4781,1.48,12.49,47.84626,-54.09684
2020-01-06 13:39:01+00:00,244.568,1.5,12.49,47.84626,-54.09684
2020-01-06 13:49:01+00:00,235.8731,1.4,12.49,47.84626,-54.09684
2020-01-06 13:59:01+00:00,237.2798,1.42,12.49,47.84626,-54.09684
2020-01-06 14:09:01+00:00,247.4331,1.5,12.49,47.84626,-54.09684
2020-01-06 14:19:01+00:00,246.1981,1.4,12.49,47.84626,-54.09684
2020-01-06 14:29:01+00:00,244.5581,1.4,12.49,47.84626,-54.09684
2020-01-06 14:39:01+00:00,252.0214,1.49,12.49,47.84626,-54.09684
2020-01-06 14:49:01+00:00,252.4197,1.5,12.49,47.84626,-54.09684
2020-01-06 14:59:01+00:00,243.2781,1.5,12.49,47.84626,-54.09684
2020-01-06 15:09:01+00:00,247.2864,1.58,12.49,47.84626,-54.09684
2020-01-06 15:19:01+00:00,262.5064,1.68,12.65,47.84626,-54.09684
2020-01-06 15:29:01+00:00,268.3464,1.7,12.65,47.84626,-54.09684
2020-01-06 15:39:01+00:00,259.0298,1.69,12.65,47.84626,-54.09684
2020-01-06 15:49:01+00:00,255.1565,1.7,12.65,47.84626,-54.09684
2020-01-06 15:59:01+00:00,267.6064,1.74,12.65,47.84626,-54.09684
2020-01-06 16:09:01+00:00,275.6631,1.7,12.65,47.84626,-54.09684
2020-01-06 16:19:01+00:00,267.8565,1.7,12.81,47.84626,-54.09684
2020-01-06 16:29:01+00:00,263.8847,1.78,12.81,47.84626,-54.09684
2020-01-06 16:39:01+00:00,273.6047,1.8,12.81,47.84626,-54.09684
2020-01-06 16:49:01+00:00,280.6364,1.98,12.81,47.84626,-54.09684
2020-01-06 16:59:01+00:00,276.7864,2.0,12.81,47.84626,-54.09684
2020-01-06 17:09:01+00:00,279.2197,1.83,12.81,47.84626,-54.09684
2020-01-06 17:19:01+00:00,292.7014,1.98,13.05,47.84626,-54.09684
2020-01-06 17:29:01+00:00,299.8014,1.92,13.05,47.84626,-54.09684
2020-01-06 17:39:01+00:00,296.9913,1.9,13.05,47.84626,-54.09684
2020-01-06 17:49:01+00:00,306.2397,1.88,13.05,47.84626,-54.09684
2020-01-06 17:59:01+00:00,320.4563,1.9,13.05,47.84626,-54.09684
2020-01-06 18:09:01+00:00,321.8547,1.9,13.05,47.84626,-54.09684
2020-01-06 18:19:01+00:00,317.018,1.9,13.05,47.84626,-54.09684
2020-01-06 18:29:01+00:00,331.7597,1.9,13.05,47.84626,-54.09684
2020-01-06 18:39:01+00:00,342.2963,1.99,13.05,47.84626,-54.09684
2020-01-06 18:49:01+00:00,336.36800000000005,2.0,13.05,47.84626,-54.09684
2020-01-06 18:59:01+00:00,333.1796,2.0,13.05,47.84626,-54.09684
2020-01-06 19:09:01+00:00,344.0063,2.05,13.05,47.84626,-54.09684
2020-01-06 19:19:01+00:00,349.403,2.1,12.97,47.84626,-54.09684
2020-01-06 19:29:01+00:00,347.56300000000016,2.18,12.97,47.84626,-54.09684
2020-01-06 19:39:01+00:00,345.6279,2.2,12.97,47.84626,-54.09684
2020-01-06 19:49:01+00:00,344.093,2.2,12.97,47.84626,-54.09684
2020-01-06 19:59:01+00:00,335.908,2.19,12.97,47.84626,-54.09684
2020-01-06 20:09:01+00:00,331.2613,2.1,12.97,47.84626,-54.09684
2020-01-06 20:19:01+00:00,327.6963,2.1,12.81,47.84626,-54.09684
2020-01-06 20:29:01+00:00,334.3713,2.2,12.81,47.84626,-54.09684
2020-01-06 20:39:01+00:00,339.7463,2.2,12.81,47.84626,-54.09684
2020-01-06 20:49:01+00:00,337.80300000000005,2.25,12.81,47.84626,-54.09684
2020-01-06 20:59:01+00:00,333.2912,2.1,12.81,47.84626,-54.09684
2020-01-06 21:09:01+00:00,336.278,2.1,12.81,47.84626,-54.09684
2020-01-06 21:19:01+00:00,343.9363,2.1,12.65,47.84626,-54.09684
2020-01-06 21:29:01+00:00,340.3796,2.1,12.65,47.84626,-54.09684
2020-01-06 21:39:01+00:00,340.8246,2.0,12.65,47.84626,-54.09684
2020-01-06 21:49:01+00:00,342.0447,2.0,12.65,47.84626,-54.09684
2020-01-06 21:59:01+00:00,336.7579,2.0,12.65,47.84626,-54.09684
2020-01-06 22:09:01+00:00,332.2913,1.97,12.65,47.84626,-54.09684
2020-01-06 22:19:01+00:00,336.3547,1.98,12.57,47.84626,-54.09684
2020-01-06 22:29:01+00:00,340.713,1.99,12.57,47.84626,-54.09684
2020-01-06 22:39:01+00:00,332.6079,1.9,12.57,47.84626,-54.09684
2020-01-06 22:49:01+00:00,325.3763,1.9,12.57,47.84626,-54.09684
2020-01-06 22:59:01+00:00,328.5713,1.9,12.57,47.84626,-54.09684
2020-01-06 23:09:01+00:00,322.5797,1.9,12.57,47.84626,-54.09684
2020-01-06 23:19:01+00:00,309.6063,1.9,12.49,47.84626,-54.09684
2020-01-06 23:29:01+00:00,303.6546,1.9,12.49,47.84626,-54.09684
2020-01-06 23:39:01+00:00,305.1096,1.9,12.49,47.84626,-54.09684
2020-01-06 23:49:01+00:00,302.0147,1.9,12.49,47.84626,-54.09684
2020-01-06 23:59:01+00:00,295.4113,1.9,12.49,47.84626,-54.09684
